THORAD AGENA D DEB, 4685

Orbit data source: Space-Track

THORAD AGENA D DEB, 4685 is space debris in SSO originally from a launch on Wed, 08 Apr 1970 UTC launched from the Air Force Western Test Range (AFWTR). Debris objects in space refer to the collection of defunct objects orbiting the Earth. Examples of debris include non-operational satellites, rocket bodies, and fragments generated from explosions, collisions, or faulty payload assembly.

Loading next visibility...
Identifier
4685, 1970-025BJ
Orbit
SSO
Country
Flag of USUS
Related business
Manufacturer
Unknown
Mission
Spacecraft
Bus & Motor
Unknown
Mass
Unknown
Launch date (UTC)
1970-04-08 (56 years ago)
Launch vehicle
Unknown
Launch site
Air Force Western Test Range (AFWTR)
Object type
Payload
Rocket body
Debris
Shape & HBR
Unknown shape, 0.2 m
Radar Cross Section
Medium (>0.1 m² and <1 m²)

Expand to show TLE details & history
Last TLE update: 18 hours ago

TLE from 18 hours ago
0 THORAD AGENA D DEB
1 04685U 70025BJ  25346.22754947  .00000437  00000-0  67861-3 0  9992
2 04685  99.9413  64.6720 0052992  34.9881 338.1020 13.56465823744167
Epoch: 2025-12-12T05:27Z
TLE epoch observation values (Epoch: 2025-12-12T05:27:40.274Z)
Latitude
12.62916°
Longitude
-100.657°
Altitude
1,014.105 km
Speed
7.364 km/s
True Right ascension
04h 09m 43s
True Declination
12° 33' 31"
Sunlit
Object was in full shadow at epoch
Visualization orbit readout
Latitude
Unknown
Longitude
Unknown
Altitude
Unknown
Speed
Unknown
Apparent Right ascension
Unknown
Apparent Declination
Unknown
Sunlit
N/A
Visualization observer readout
Local Sidereal Time
22:21:16
Azimuth
Unknown
Elevation
Unknown
Doppler factor
Unknown
Orbital elements
Apogee altitude
1,085.21 km
Perigee altitude
1,006.528 km
Semi-major axis
7,424.006 km
Eccentricity
0.0053
Inclination
99.9413°
RAAN
64.672°
Arg. of periapsis
34.9881°
True anomaly
337.87413°
Mean anomaly
338.102°
Eccentric anomaly
337.9882°
Mean motion
3.39301 °/min
Orbital period
106.1 mins
BSTAR
0.00067861
Loading maneuver chart data...
Computing Atmospheric mass density...

Documentation

Showing up to 5 results
|